timestamp,gas_concentrations,,corrected_fluxes_and_quality_flags,,,,,,,,,,storage_terms,,,turbulence,,,footprint,,
ISOdate,CO2_1_1_1,H2O_1_1_1,Tau_1_1_1,QcTau_1_1_1,H_1_1_1,QcH_1_1_1,LE_1_1_1, QcLE_1_1_1,Fc_1_1_1, QcFc_1_1_1,E_1_1_1, QcE_1_1_1,Sa_1_1_1,Sw_1_1_1,Sc_1_1_1,ustar_1_1_1,MO_length_1_1_1,ZL_1_1_1,Fetchmax_1_1_1,Fetch70_1_1_1,Fetch90_1_1_1
yyyymmddHHMM,[µmol+1mol_a-1],[mmol+1mol_a-1],[kg+1m-1s-2],[#],[W+1m-2],[#],[W+1m-2],[#],[µmol+1s-1m-2],[#],[mmol+1s-1m-2],[#],[W+1m-2],[W+1m-2],[µmol+1s-1m-2],[m+1s-1],[m],[#],[m],[m],[m]
201807030030,385.74827085625702,16.421766603520485,0.26039500986407726,0,-41.639958094877159,0,57.815556247943370,0,-0.32633052613847235,1,1.3149228790595207,0,-9999.,-9999.,-9999.,0.48651916133937079,232.61512500660393,9.28572464898263922E-002,105.20179784090278,192.34243884569807,288.16402277217225
201807030100,386.01967495865938,16.863427359297329,7.07513927546446764E-002,0,-22.089959898229548,0,20.854144119818947,0,0.81724847028832637,0,0.47392331846293262,0,-17.547421281140608,14.485593614232595,0.20229241590804592,0.25324387861463171,61.856062882021469,0.34919778261991624,100.11699013361326,183.04578864053198,274.23594669336404
201807030130,386.29673678889327,17.476659705653940,6.04540472474866947E-002,0,-20.003011358793636,0,16.206224057310063,0,-8.16945638745574243E-002,0,0.36822677167070994,0,-4.2491651863261595,20.132685153267239,0.20667448659652601,0.23402450963386803,53.918440396248535,0.40060505907182836,107.53915622224810,196.61587542901847,294.56640949608857
201807030200,387.74140007668285,17.867001623806281,3.56569923240535880E-002,0,-20.643424923539119,0,6.9936147795105974,0,1.7581546043956289,0,0.15879417784772093,0,-15.592919952423433,12.857710240538438,1.0804830220082231,0.17950754305115951,23.583431540428798,0.91589724603781164,297.92357412341147,2873.0000000000000,-9999.
201807030230,390.01828285616824,18.184870951488300,6.91766303948112560E-002,0,-36.928515555599574,0,8.1409496936428312,0,6.2234165445337197,0,0.18473516812233481,0,-13.441470547125698,10.502430790256813,1.7070898749446286,0.24973771186297797,35.511350569075212,0.60825622382298794,105.54640949271408,192.97249885345829,289.10796747576262
201807030300,389.43173963638276,18.336914140814986,6.20296428556411719E-002,0,-42.823897582007831,0,6.6693998499664824,0,7.6566157401822785,0,0.15128315030636996,0,-8.8998248706510878,5.0334903573264045,-0.44045961321290383,0.23630420928216095,25.946590478255782,0.83247932009030678,94.606977118483641,172.97172752035681,259.14316740105579
201807030330,390.40406997712540,18.678873012351765,0.11483079176180068,0,-52.170876105506032,0,-3.1205939743704914,2,8.5163128508937707,0,-7.07502238117721921E-002,2,-11.143877474485629,11.347090851419885,0.73150120703655808,0.32124154473147692,53.515053581897625,0.40362474769728285,110.79686095160679,202.57199866591998,303.48976745272358
201807030400,391.95290918523153,18.927000236346654,0.11117188221943833,0,-58.252997335735230,0,1.6838322032589834,0,10.615836565629170,0,3.81618410544627557E-002,0,-8.3794025230754290,8.2483978663273927,1.1668956631027110,0.31586992963171812,45.569763693262374,0.47399850798861232,99.701662933273113,182.28643805649358,273.09830114668131
201807030430,391.58945773270204,19.059621724187259,0.12221747453443170,0,-64.839200285253597,0,3.9800251241428102,0,13.789423551779494,0,9.01727062644314958E-002,0,-7.4057321195703301,4.4157426843253686,-0.27417355386962111,0.33098757790932143,47.110353428213116,0.45849794001045097,101.69288597554012,185.92702884577452,278.55256955152419
201807030500,394.38665016653590,19.052718498680772,0.10984658844340967,0,-60.458721293583842,0,5.9466188969705804,0,14.128876715099528,0,0.13468047625801258,0,-8.1301930570731926,-0.23026696315637427,2.1131798186858859,0.31355972828258499,42.961787378911666,0.50277237791560403,99.007694305000044,181.01764207406839,271.19741356010911
201807030530,397.98674747392602,19.131422028061841,0.15064993622705583,0,-72.102336090440531,0,11.141202127445315,0,17.826712797689069,0,0.25222733784568530,0,-9.1831549962731529,2.6307594434447465,2.7243397803856144,0.36690321452691138,57.726240922785514,0.37417991635540776,101.02380069032057,184.70372755058639,276.71984129665054
201807030600,396.56858490964123,19.022411332577320,0.12673222475355450,0,-67.795872123717487,0,14.887773397737959,0,19.212378752835889,0,0.33701708908591838,0,-1.9983149964584732,-3.6460607167970132,-1.0737495042741561,0.33642370607246047,47.335203425410477,0.45631999942784007,95.914957306757358,175.36313246340623,262.72592777677926
201807030630,397.29758304477855,19.013422505938905,0.12224942209104207,0,-59.061178677644421,0,10.233052055272442,0,15.084116781490138,0,0.23161183274271449,0,-3.5128813654153390,-0.30094583053305124,0.55241734125754782,0.33028113012862309,51.424150429769689,0.42003610792752460,94.427417556214678,172.64343537294400,258.65132594156967
201807030700,397.80182658719565,18.919974469714830,9.84042174211014475E-002,0,-53.079203533706227,0,11.025729953058967,0,14.903772101897008,0,0.24950402730154378,0,-4.5053733383566090,-3.1318014114576846,0.38241471048462983,0.29619846436704833,41.273418775930118,0.52333924934264753,101.54367561054728,185.65422471036251,278.14385924525487
201807030730,397.59711811835081,18.863516423419821,0.12881651159439511,0,-59.233036275421256,0,9.9702790066936942,0,15.480357236864796,0,0.22563108228045101,0,1.1296489883924470,-1.8914005895532762,-0.15519763515196280,0.33894522682291273,55.413745905057525,0.38979498041890365,95.857657586301485,175.25837029960437,262.56897496523840
201807030800,396.81368243980285,18.991932745959556,0.23027305537570331,0,-71.057984444711366,0,11.139156391855437,0,17.182728819739623,0,0.25206883395898594,0,-1.3067403663099912,4.3018701951148479,-0.59389171925864337,0.45320909846070778,110.40544051610800,0.19564253264175502,90.740290169100163,165.90219056033266,248.55171279663855
201807030830,394.98481497253476,19.346975033841233,0.37418569195766788,0,-66.513002434945264,0,-0.52076337422151986,1,15.204365483946843,0,-1.17862362604647351E-002,1,3.5790762692033988,11.885945998715043,-1.3857044577005271,0.57790677293657411,244.57945833281968,8.83148574587448720E-002,98.980069308280306,180.96713476952391,271.12174441426555
201807030900,394.39492065811390,19.630228158978618,0.36472154771365356,0,-51.885321417609298,0,17.805759700550286,0,9.6032922532416656,0,0.40305607106299540,0,3.7046688433571195,9.4809370544191900,-0.44694668712757019,0.57058686652369772,301.90419978827805,7.15458745361867571E-002,96.863259021386426,177.09693044306769,265.32347308966945
201807030930,425.48624646740461,19.811393958638799,0.30140114400681395,0,-49.486442505888178,0,12.431784482343279,0,13.380839451338742,0,0.28140140162618743,0,-0.64240050977665020,6.0672531185877032,23.569367264972676,0.51857898167322325,237.71260075602862,9.08660286888565566E-002,97.341608240832201,177.97150537787326,266.63374571042721
201807031000,403.46041466745089,19.762010490429283,0.21439298431565182,0,-27.654207078864157,0,-19.963252654063332,2,15.081040568614766,0,-0.45186265953477445,2,-0.93058985446638387,-1.6543234394894979,-16.701147254351238,0.43731161193392754,255.11276634982823,8.46684401923680635E-002,105.53975794583191,192.96033770435562,289.08974785835534
201807031030,396.96898021305691,19.770093808789756,0.12290500065655155,0,-23.544815781528580,0,8.7641386044857086,0,5.2823024280013424,0,0.19830974277995062,0,-7.4173996728119720,0.27122768931174973,-4.9285575318196964,0.33089376680932053,129.81917537002630,0.16638528120697940,92.069189938331746,168.33184316933119,252.19177514559107
201807031100,397.98301645277081,19.733340956974377,9.62062387964798815E-002,0,-24.341741206039746,0,7.1788236362670723,0,4.3973397977788142,0,0.16240348996455697,0,-4.9078665344500800,-1.2346994534752702,0.77066522427868844,0.29260774766597458,86.845039933201321,0.24871886772824439,89.222945880281074,163.12800126823120,244.39547171359419
201807031130,397.82253507028003,19.724513102657063,0.12057297287063361,0,-28.691557136006416,0,15.952687208431975,0,6.4281095083424091,0,0.36081257487321017,0,-4.9937740010560301,-0.29690118417422873,-0.12207570590733975,0.32742535476600737,103.24326550341368,0.20921461457731411,94.423492543411783,172.63625919772167,258.64057472341631
201807031200,393.29155826527688,19.837725734073370,0.27683115940231179,0,-0.55411353759098081,1,56.312709217142228,0,-1.7532665820784212,1,1.2742221577242545,0,10.097472903262874,3.7997870681146590,-3.4410813945155980,0.49654077108680295,18643.956572718311,1.15855236605771038E-003,110.43575055741975,201.91177369509290,302.50063013768312
201807031230,386.30762810335284,19.749446504711681,0.30329735323832052,0,10.938538416475977,2,79.590741843317716,0,-0.95318668572267473,2,1.8020078092406469,0,13.469006928397857,-2.9543493818216517,-5.2917257022310329,0.52032808818160614,-1086.5944476750112,-1.98786217306903927E-002,97.513306278540256,178.28542415108407,267.10405323618704
201807031300,380.51907280898445,19.847986472259453,0.50104119852672646,0,2.3897600226913109,2,108.52184684953308,0,1.4679535688764234,2,2.4588678151996248,0,17.023043979457722,3.2859911654227600,-4.3736313012859052,0.66973124102125570,-10604.597942466753,-2.03685232737598615E-003,105.74264105631221,193.33127273656291,289.64547612981460
201807031330,378.84907605504662,19.758535336000794,0.65130657558118665,0,34.307751422040390,0,182.32442002951075,0,-3.5683920158162890,0,4.1339849886866276,0,16.039695524606227,-2.9745133675382442,-1.2591276034153167,0.76437786619929660,-1098.4708096489549,-1.96636995815144579E-002,117.41978914255616,214.68082367358389,321.63099383101621
201807031400,378.68935045533863,19.346727884318028,0.72459970478419367,0,54.389456728564753,0,252.81809887145394,0,-10.787330430965989,0,5.7367377054309348,0,17.383142477510710,-13.649054546453756,-0.12012675018939500,0.80718826812058819,-816.00738062067319,-2.64703488142111719E-002,111.36872037736264,203.61754008141102,305.05617901571992
201807031430,379.10122512011202,18.444447372877708,0.86686792313201755,0,74.262010111377109,0,246.58648150392116,0,-9.9369046033327777,0,5.5980855084483210,0,11.121937164408600,-29.841504126550376,0.30925339422426679,0.88345719929666811,-783.48361140944405,-2.75691790937946830E-002,104.88905877821755,191.77065209610120,287.30738202808857
201807031500,379.73512542384702,17.457121349183829,0.56094384146056142,0,107.74725741140435,0,239.65748564035357,0,-13.800224900848868,0,5.4435696837426164,0,11.571570308386017,-32.591018306252693,0.47528170135809172,0.71104444493557217,-281.55598546547031,-7.67165363730084870E-002,94.185213926149643,172.20060989029929,257.98789267519993
201807031530,381.03552226261422,15.615139325147693,0.65052556710159259,0,124.90813253593338,0,162.65086400608095,1,-9.5045261332755437,0,3.6975627920064809,1,18.975851520395771,-60.564033242287451,0.97199602740268787,0.76663354577491905,-304.28010764208483,-7.09872234743896130E-002,102.68825040524627,187.74687247848001,281.27902693224524
201807031600,380.81782850975463,15.381360261014883,0.81052244263118856,0,126.01651897702594,0,322.78137051444196,0,-15.475394706447753,0,7.3414151490455133,0,10.954781361183903,-7.6657612266490913,-0.16235548324871080,0.85664846832836450,-420.63135792669863,-5.13513783339094934E-002,109.23364150441741,199.71393495318628,299.20786720365157
201807031630,381.78672495002888,14.468015955593781,0.83249084813894847,0,96.755713116753199,0,257.15681433407497,0,-12.460892816367153,0,5.8513451565088559,0,9.6056947542647340,-29.899111254272043,0.72170347081904729,0.86856877930372001,-571.04238288035265,-3.78255636491446404E-002,105.19622935054012,192.33225786933619,288.14876981436538
201807031700,380.77735122522813,14.813571172913049,1.0313822916763158,0,139.36876480015812,0,269.91150071383669,0,-11.457169352318630,0,6.1436687401137764,0,7.6554436966255963,11.296541517386041,-0.75108042737888969,0.96733374779113468,-547.73611465288002,-3.94350480498966080E-002,106.87373647576521,195.39927590770458,292.74372171970157
201807031730,381.68735696229282,14.912287195132279,1.2203014379212744,0,109.46463465712097,0,231.47378803585653,0,-17.205391645783784,0,5.2685442212134994,0,-0.90529331965975313,3.2270854522198023,0.67710459266476331,1.0522516784033469,-897.51175497262000,-2.40665371571193998E-002,109.99478069120818,201.10554013953271,301.29274535646482
201807031800,381.44011247852450,15.919606866640287,1.0525580475183118,0,182.22583553905869,0,420.69831752730977,0,-23.052042858936431,0,9.5776713542366885,0,5.1607052554034052,32.896758560807122,-0.18382372342017592,0.97782385968622920,-432.72269530176538,-4.99164944074332179E-002,111.35275895913153,203.58835751825131,305.01245821834738
201807031830,382.51523289861080,15.763599343454418,0.90362011352017346,0,11.985992737338782,0,254.69269137285261,0,-14.294921638012518,0,5.7975093793268693,0,-3.3021050850800595,-5.0981816607325943,0.79974558696766962,0.90574879071378711,-5228.4539355310162,-4.13124037551767121E-003,103.62009300575076,189.45057794815656,283.83148818160475
201807031900,382.07033046772494,15.846593522242506,0.52144289432081692,0,-53.240426708917070,0,155.74146257352592,0,-5.7482425572512899,0,3.5427938767723157,0,-14.613379993307177,2.7193648854061636,-0.33160896908992910,0.68737174584605309,514.37364236277347,4.19928204345395295E-002,97.712467065765338,178.64955358920673,267.64958548756590
201807031930,378.52530177364548,16.580752541853983,0.37997722751751301,0,16.229172756275101,1,202.15681755409403,0,-18.124668158056199,0,4.6006697489628072,0,9.8497809822369469,24.032280666312403,-2.6409323143156951,0.58700219482891081,-1051.8096909278700,-2.05360344046129038E-002,108.23112851903589,197.88102148079133,296.46182882143910
201807032000,379.31588859209626,16.408653275967204,0.73807110884633886,0,114.67519533405428,0,407.35919774464162,0,-23.195884290961864,0,9.2768655457138998,0,14.964034862095849,-5.6165419579423643,0.58757497983839280,0.81904491544084046,-404.33921151860585,-5.34204929541098120E-002,107.17866640873643,195.95678507759004,293.57897204766198
201807032030,379.11890712175688,15.276915261296011,0.61227404335939872,0,-11.941159306453882,1,302.00180655428267,0,-15.152921488651499,0,6.8764968464652281,0,-3.3951582144735775,-36.963763250794287,-0.14649181443445825,0.74559145869598920,2928.8513555197151,7.37490482720901119E-003,101.43738594858308,185.45989330894295,277.85271539411065
201807032100,378.52228960602736,15.061375619063766,0.90296740834523948,0,61.484986269042871,0,372.20738841960804,0,-18.391906126624278,0,8.4776112217501254,0,6.7172409074840624,-7.0295387919567425,-0.44318410935535213,0.90593312328578501,-1020.2617023762522,-2.11710387145692853E-002,112.24821175772416,205.22553082410090,307.46524216254653
201807032130,381.24785102310364,14.007579842462357,0.61205244195252217,0,-11.132760618572410,2,237.70971930073230,0,-11.020661270094337,0,5.4139756105977703,0,-0.98309429145047744,-34.366390828025075,2.0244301637113558,0.74574111989688607,3141.9529338805000,6.87470514503306287E-003,103.35788970280915,188.97118668492496,283.11327271275820
201807032200,379.60047545602134,14.674893398150010,0.71575410063442046,0,-32.374783955026537,0,220.31637566829193,0,-12.367757330027704,0,5.0143919912068506,0,-15.322575307222309,21.813470895408283,-1.2256287807051329,0.80588122061651069,1362.9144593186190,1.58483900822350907E-002,117.63971539449386,215.08291900400650,322.23340590735182
201807032230,381.40792480228998,14.725436471908075,0.89772099245002079,0,-43.292086636859594,0,169.76665548648919,0,-11.286503748526467,0,3.8631488733234209,0,-4.2434150069497987,1.6524918770434232,1.3447231158353927,0.90253442137570183,1431.0156801203666,1.50941742288827792E-002,121.14307845663288,221.48818402193720,331.82966009631684
201807032300,375.98482390977671,15.098172700336603,0.98894695296730872,0,20.064774705358499,0,201.19974942766780,0,-27.956097851953405,0,4.5795847106246450,0,5.6360325332453725,12.171873649953261,-4.0309013958219344,0.94779951811698349,-3575.8714994534967,-6.04048551613254204E-003,110.28025806748521,201.62748383170643,302.07471211793444
201807032330,382.84070625522344,14.689670791314578,0.57359902624442605,0,-44.647906812519629,0,126.47865027824901,0,-3.2482559714102237,0,2.8771668450856347,0,-12.932152996345865,-13.382001882240289,5.1090267540736374,0.72084234467903774,707.18536342505865,3.05436185717791395E-002,106.55094066381413,194.80910221301406,291.85953398132750
201807040000,379.20562362372942,15.979105193305470,0.30280626206056410,0,-35.532895193470459,0,96.710353558335072,0,-4.9594136107515832,0,2.1988981048601235,0,-11.149414719266638,42.340880951050536,-2.7139825959974506,0.52337868509385699,340.23036922085015,6.34863961423120932E-002,108.04759976010645,197.54547237597279,295.95911511736847
